,,Stat5,,Stat1,,Stat2,,Stat3,,Stat4,,Wind1,,Wind1,
time,status,PA1M_AVG,status,PR1M_SUM,status,RH1M_AVG,status,SR1M_AVG,status,TA1M_AVG,status,W1dAve1m,status,W1sAve1m,
2003-08-29, 00:00:00,VALID,919.961,VALID,0,VALID,98.4718,VALID,0.0339617,VALID,20.1034,VALID,359,VALID,0.722551,
2003-08-29, 00:01:00,VALID,919.95,VALID,0,VALID,98.4018,VALID,0.0339617,VALID,20.0776,VALID,338,VALID,0.46808,
2003-08-29, 00:02:00,VALID,919.945,VALID,0,VALID,98.3713,VALID,0,VALID,20.0619,VALID,339,VALID,0.30332,
2003-08-29, 00:03:00,VALID,919.938,VALID,0,VALID,98.3243,VALID,0,VALID,20.0386,VALID,357,VALID,0.271434,
2003-08-29, 00:04:00,VALID,919.93,VALID,0,VALID,98.3128,VALID,0,VALID,20.0262,VALID,3,VALID,0.253906,
2003-08-29, 00:05:00,VALID,919.924,VALID,0,VALID,98.3116,VALID,0,VALID,20.0162,VALID,357,VALID,0.274239,
2003-08-29, 00:06:00,VALID,919.916,VALID,0,VALID,98.4336,VALID,0.0169808,VALID,20.0162,VALID,357,VALID,0.163628,
2003-08-29, 00:07:00,VALID,919.917,VALID,0,VALID,98.5443,VALID,0,VALID,20.0227,VALID,357,VALID,0.00228659,
2003-08-29, 00:08:00,VALID,919.905,VALID,0,VALID,98.6295,VALID,0,VALID,20.0291,VALID,357,VALID,0,
2003-08-29, 00:09:00,VALID,919.885,VALID,0,VALID,98.6969,VALID,0,VALID,20.0485,VALID,357,VALID,0,
2003-08-29, 00:10:00,VALID,919.863,VALID,0,VALID,98.7312,VALID,0,VALID,20.0647,VALID,358,VALID,0.251603,
2003-08-29, 00:11:00,VALID,919.842,VALID,0,VALID,98.7375,VALID,0,VALID,20.0709,VALID,2,VALID,0.370683,
2003-08-29, 00:12:00,VALID,919.82,VALID,0,VALID,98.7668,VALID,-0.0169808,VALID,20.098,VALID,2,VALID,0.0424679,
2003-08-29, 00:13:00,VALID,919.809,VALID,0,VALID,98.7655,VALID,0.0169808,VALID,20.1002,VALID,2,VALID,0,
2003-08-29, 00:14:00,VALID,919.792,VALID,0,VALID,98.7554,VALID,-0.0169808,VALID,20.1166,VALID,2,VALID,0,
2003-08-29, 00:15:00,VALID,919.777,VALID,0,VALID,98.7541,VALID,0,VALID,20.1429,VALID,2,VALID,0,
2003-08-29, 00:16:00,VALID,919.77,VALID,0,VALID,98.7706,VALID,0,VALID,20.1392,VALID,2,VALID,0.0745192,
2003-08-29, 00:17:00,VALID,919.773,VALID,0,VALID,98.7732,VALID,0,VALID,20.1521,VALID,2,VALID,0.360814,
2003-08-29, 00:18:00,VALID,919.772,VALID,0,VALID,98.8126,VALID,0,VALID,20.1747,VALID,2,VALID,0.4377,
2003-08-29, 00:19:00,VALID,919.774,VALID,0,VALID,98.8253,VALID,0,VALID,20.1976,VALID,6,VALID,0.564967,
2003-08-29, 00:20:00,VALID,919.773,VALID,0,VALID,98.6981,VALID,0,VALID,20.1909,VALID,19,VALID,0.694511,
2003-08-29, 00:21:00,VALID,919.75,VALID,0,VALID,98.6536,VALID,0.0169808,VALID,20.1645,VALID,27,VALID,0.673437,
2003-08-29, 00:22:00,VALID,919.733,VALID,0,VALID,98.674,VALID,0,VALID,20.1777,VALID,20,VALID,0.551309,
2003-08-29, 00:23:00,VALID,919.71,VALID,0,VALID,98.6231,VALID,0,VALID,20.1715,VALID,20,VALID,0.508984,
2003-08-29, 00:24:00,VALID,919.704,VALID,0,VALID,98.6447,VALID,0,VALID,20.178,VALID,20,VALID,0.472756,
2003-08-29, 00:25:00,VALID,919.704,VALID,0,VALID,98.6867,VALID,0,VALID,20.2043,VALID,18,VALID,0.651316,
2003-08-29, 00:26:00,VALID,919.705,VALID,0,VALID,98.6714,VALID,0,VALID,20.204,VALID,18,VALID,0.75621,
2003-08-29, 00:27:00,VALID,919.696,VALID,0,VALID,98.6244,VALID,0,VALID,20.2105,VALID,18,VALID,0.937706,
2003-08-29, 00:28:00,VALID,919.7,VALID,0,VALID,98.5621,VALID,0,VALID,20.2078,VALID,17,VALID,0.894431,
2003-08-29, 00:29:00,VALID,919.704,VALID,0,VALID,98.5265,VALID,0,VALID,20.2038,VALID,17,VALID,1.38926,
2003-08-29, 00:30:00,VALID,919.718,VALID,0,VALID,98.4184,VALID,0,VALID,20.1844,VALID,8,VALID,1.36824,
2003-08-29, 00:31:00,VALID,919.714,VALID,0,VALID,98.1793,VALID,0,VALID,20.1556,VALID,1,VALID,1.57344,
2003-08-29, 00:32:00,VALID,919.699,VALID,0,VALID,98.075,VALID,0,VALID,20.1427,VALID,353,VALID,1.1847,
2003-08-29, 00:33:00,VALID,919.682,VALID,0,VALID,98.07,VALID,0,VALID,20.1338,VALID,9,VALID,1.23006,
2003-08-29, 00:34:00,VALID,919.662,VALID,0,VALID,98.1183,VALID,0,VALID,20.1298,VALID,7,VALID,0.9373,
2003-08-29, 00:35:00,VALID,919.625,VALID,0,VALID,98.1399,VALID,0,VALID,20.136,VALID,20,VALID,1.20025,
2003-08-29, 00:36:00,VALID,919.607,VALID,0,VALID,98.0738,VALID,0,VALID,20.1327,VALID,6,VALID,1.33714,
2003-08-29, 00:37:00,VALID,919.567,VALID,0,VALID,97.9682,VALID,0,VALID,20.1066,VALID,17,VALID,1.76543,
2003-08-29, 00:38:00,VALID,919.553,VALID,0,VALID,97.8919,VALID,0,VALID,20.0977,VALID,12,VALID,1.82601,
2003-08-29, 00:39:00,VALID,919.551,VALID,0,VALID,97.8576,VALID,0,VALID,20.0845,VALID,9,VALID,1.58828,
2003-08-29, 00:40:00,VALID,919.537,VALID,0,VALID,97.864,VALID,0,VALID,20.0687,VALID,15,VALID,2.30929,
2003-08-29, 00:41:00,VALID,919.527,VALID,0,VALID,97.8156,VALID,-0.0339617,VALID,20.0562,VALID,350,VALID,1.37521,
2003-08-29, 00:42:00,VALID,919.522,VALID,0,VALID,97.7762,VALID,-0.0509425,VALID,20.0371,VALID,358,VALID,1.23658,
2003-08-29, 00:43:00,VALID,919.52,VALID,0,VALID,97.7953,VALID,-0.0169808,VALID,20.021,VALID,7,VALID,0.825863,
2003-08-29, 00:44:00,VALID,919.525,VALID,0,VALID,97.8373,VALID,0,VALID,20.0436,VALID,26,VALID,1.45713,
2003-08-29, 00:45:00,VALID,919.509,VALID,0,VALID,97.869,VALID,-0.0169808,VALID,20.0339,VALID,6,VALID,1.03457,
2003-08-29, 00:46:00,VALID,919.493,VALID,0,VALID,97.8322,VALID,-0.0509425,VALID,20.0277,VALID,20,VALID,0.888725,
2003-08-29, 00:47:00,VALID,919.472,VALID,0,VALID,97.8334,VALID,-0.0509425,VALID,20.0274,VALID,27,VALID,1.08027,
2003-08-29, 00:48:00,VALID,919.446,VALID,0,VALID,97.7877,VALID,-0.0169808,VALID,20.0008,VALID,23,VALID,1.36318,
2003-08-29, 00:49:00,VALID,919.411,VALID,0,VALID,97.8309,VALID,-0.0509425,VALID,20.0078,VALID,23,VALID,0.95662,
2003-08-29, 00:50:00,VALID,919.392,VALID,0,VALID,97.8627,VALID,0,VALID,20.0145,VALID,37,VALID,1.16246,
2003-08-29, 00:51:00,VALID,919.377,VALID,0,VALID,97.8462,VALID,-0.0169808,VALID,20.0115,VALID,7,VALID,1.46155,
2003-08-29, 00:52:00,VALID,919.358,VALID,0,VALID,97.8792,VALID,-0.0509425,VALID,19.9757,VALID,359,VALID,1.42688,
2003-08-29, 00:53:00,VALID,919.332,VALID,0,VALID,97.9797,VALID,-0.0509425,VALID,19.9561,VALID,15,VALID,1.10215,
2003-08-29, 00:54:00,VALID,919.312,VALID,0,VALID,98.0496,VALID,-0.0169808,VALID,19.9536,VALID,359,VALID,0.656039,
2003-08-29, 00:55:00,VALID,919.282,VALID,0,VALID,98.0878,VALID,-0.0339617,VALID,19.9375,VALID,337,VALID,0.530469,
2003-08-29, 00:56:00,VALID,919.264,VALID,0,VALID,98.1615,VALID,-0.0339617,VALID,19.9343,VALID,343,VALID,0.228365,
2003-08-29, 00:57:00,VALID,919.258,VALID,0,VALID,98.206,VALID,-0.0339617,VALID,19.9181,VALID,348,VALID,0.353207,
2003-08-29, 00:58:00,VALID,919.26,VALID,0,VALID,98.2709,VALID,-0.0509425,VALID,19.8913,VALID,2,VALID,0.701322,
2003-08-29, 00:59:00,VALID,919.264,VALID,0,VALID,98.3421,VALID,-0.0509425,VALID,19.892,VALID,13,VALID,0.770148,
2003-08-29, 01:00:00,VALID,919.249,VALID,0,VALID,98.3497,VALID,-0.0169808,VALID,19.8662,VALID,10,VALID,0.664864,
2003-08-29, 01:01:00,VALID,919.239,VALID,0,VALID,98.3993,VALID,-0.0509425,VALID,19.8562,VALID,32,VALID,0.77207,
2003-08-29, 01:02:00,VALID,919.225,VALID,0,VALID,98.4349,VALID,-0.0339617,VALID,19.85,VALID,18,VALID,0.378378,
2003-08-29, 01:03:00,VALID,919.214,VALID,0,VALID,98.4273,VALID,-0.0509425,VALID,19.8336,VALID,11,VALID,0.0677734,
2003-08-29, 01:04:00,VALID,919.208,VALID,0,VALID,98.4133,VALID,-0.0509425,VALID,19.8135,VALID,11,VALID,0,
2003-08-29, 01:05:00,VALID,919.22,VALID,0,VALID,98.4438,VALID,-0.101885,VALID,19.8279,VALID,11,VALID,0,
2003-08-29, 01:06:00,VALID,919.234,VALID,0,VALID,98.4578,VALID,-0.0509425,VALID,19.8215,VALID,11,VALID,0,
2003-08-29, 01:07:00,VALID,919.226,VALID,0,VALID,98.4413,VALID,-0.0679233,VALID,19.8284,VALID,11,VALID,0,
2003-08-29, 01:08:00,VALID,919.222,VALID,0,VALID,98.4731,VALID,-0.0509425,VALID,19.8143,VALID,11,VALID,0.102965,
2003-08-29, 01:09:00,VALID,919.223,VALID,0,VALID,98.4883,VALID,-0.101885,VALID,19.8247,VALID,356,VALID,0.275977,
2003-08-29, 01:10:00,VALID,919.212,VALID,0,VALID,98.5506,VALID,-0.0679233,VALID,19.8312,VALID,269,VALID,0.241132,
2003-08-29, 01:11:00,VALID,919.229,VALID,0,VALID,98.5697,VALID,0,VALID,19.8374,VALID,247,VALID,0.435352,
2003-08-29, 01:12:00,VALID,919.208,VALID,0,VALID,98.6282,VALID,0,VALID,19.8466,VALID,239,VALID,0.240184,
2003-08-29, 01:13:00,VALID,919.209,VALID,0,VALID,98.6307,VALID,-0.0339617,VALID,19.8471,VALID,239,VALID,0.212171,
2003-08-29, 01:14:00,VALID,919.206,VALID,0,VALID,98.646,VALID,-0.0509425,VALID,19.8466,VALID,239,VALID,0.0771234,
2003-08-29, 01:15:00,VALID,919.195,VALID,0,VALID,98.6663,VALID,-0.0339617,VALID,19.857,VALID,235,VALID,0.267064,
2003-08-29, 01:16:00,VALID,919.187,VALID,0,VALID,98.6803,VALID,0,VALID,19.8562,VALID,217,VALID,0.186699,
2003-08-29, 01:17:00,VALID,919.165,VALID,0,VALID,98.6104,VALID,-0.0339617,VALID,19.8567,VALID,170,VALID,0.365234,
2003-08-29, 01:18:00,VALID,919.154,VALID,0,VALID,98.5761,VALID,0,VALID,19.8473,VALID,170,VALID,0.157517,
2003-08-29, 01:19:00,VALID,919.13,VALID,0,VALID,98.543,VALID,-0.0509425,VALID,19.8309,VALID,170,VALID,0.0986328,
2003-08-29, 01:20:00,VALID,919.102,VALID,0,VALID,98.5277,VALID,-0.0679233,VALID,19.8277,VALID,170,VALID,0.0576923,
2003-08-29, 01:21:00,VALID,919.092,VALID,0,VALID,98.5087,VALID,-0.0509425,VALID,19.8145,VALID,170,VALID,0.0649671,
2003-08-29, 01:22:00,VALID,919.082,VALID,0,VALID,98.4769,VALID,-0.0169808,VALID,19.7887,VALID,170,VALID,0.19351,
2003-08-29, 01:23:00,VALID,919.072,VALID,0,VALID,98.4324,VALID,-0.0509425,VALID,19.773,VALID,108,VALID,0.525288,
2003-08-29, 01:24:00,VALID,919.056,VALID,0,VALID,98.4311,VALID,-0.0679233,VALID,19.7507,VALID,76,VALID,0.773037,
2003-08-29, 01:25:00,VALID,919.036,VALID,0,VALID,98.4718,VALID,-0.0849042,VALID,19.741,VALID,74,VALID,0.612695,
2003-08-29, 01:26:00,VALID,919.021,VALID,0,VALID,98.5862,VALID,-0.0509425,VALID,19.7276,VALID,75,VALID,0.306588,
2003-08-29, 01:27:00,VALID,919.012,VALID,0,VALID,98.5913,VALID,-0.0169808,VALID,19.7179,VALID,74,VALID,0.075,
2003-08-29, 01:28:00,VALID,918.994,VALID,0,VALID,98.5735,VALID,-0.0169808,VALID,19.6985,VALID,75,VALID,0.139623,
2003-08-29, 01:29:00,VALID,918.988,VALID,0,VALID,98.5214,VALID,-0.0169808,VALID,19.6861,VALID,84,VALID,0.0822368,
2003-08-29, 01:30:00,VALID,918.965,VALID,0,VALID,98.5481,VALID,-0.0169808,VALID,19.663,VALID,85,VALID,0,
2003-08-29, 01:31:00,VALID,918.939,VALID,0,VALID,98.6193,VALID,-0.0339617,VALID,19.6694,VALID,85,VALID,0,
2003-08-29, 01:32:00,VALID,918.933,VALID,0,VALID,98.6498,VALID,0,VALID,19.6731,VALID,85,VALID,0,
2003-08-29, 01:33:00,VALID,918.918,VALID,0,VALID,98.6142,VALID,-0.0169808,VALID,19.6625,VALID,85,VALID,0,
2003-08-29, 01:34:00,VALID,918.925,VALID,0,VALID,98.5125,VALID,-0.0509425,VALID,19.65,VALID,85,VALID,0,
2003-08-29, 01:35:00,VALID,918.907,VALID,0,VALID,98.4934,VALID,-0.0169808,VALID,19.6371,VALID,85,VALID,0,
2003-08-29, 01:36:00,VALID,918.889,VALID,0,VALID,98.4514,VALID,-0.0679233,VALID,19.615,VALID,90,VALID,0.205128,
2003-08-29, 01:37:00,VALID,918.877,VALID,0,VALID,98.4095,VALID,0,VALID,19.5917,VALID,109,VALID,0.405016,
2003-08-29, 01:38:00,VALID,918.879,VALID,0,VALID,98.3548,VALID,-0.0169808,VALID,19.5529,VALID,90,VALID,0.432692,
2003-08-29, 01:39:00,VALID,918.873,VALID,0,VALID,98.398,VALID,-0.0169808,VALID,19.5402,VALID,73,VALID,0.420847,
2003-08-29, 01:40:00,VALID,918.877,VALID,0,VALID,98.5303,VALID,-0.0169808,VALID,19.5442,VALID,58,VALID,0.675481,
2003-08-29, 01:41:00,VALID,918.859,VALID,0,VALID,98.5646,VALID,-0.0339617,VALID,19.5271,VALID,66,VALID,0.741992,
2003-08-29, 01:42:00,VALID,918.847,VALID,0,VALID,98.6155,VALID,-0.101885,VALID,19.5472,VALID,70,VALID,0.690667,
2003-08-29, 01:43:00,VALID,918.849,VALID,0,VALID,98.6155,VALID,-0.0339617,VALID,19.5537,VALID,60,VALID,0.801953,
2003-08-29, 01:44:00,VALID,918.849,VALID,0,VALID,98.5748,VALID,-0.0679233,VALID,19.5574,VALID,60,VALID,0.420673,
2003-08-29, 01:45:00,VALID,918.86,VALID,0,VALID,98.5875,VALID,-0.0169808,VALID,19.5437,VALID,60,VALID,0.243832,
2003-08-29, 01:46:00,VALID,918.863,VALID,0,VALID,98.5811,VALID,-0.0339617,VALID,19.5571,VALID,60,VALID,0.167067,
2003-08-29, 01:47:00,VALID,918.874,VALID,0,VALID,98.4311,VALID,-0.0169808,VALID,19.5243,VALID,60,VALID,0.0853207,
2003-08-29, 01:48:00,VALID,918.869,VALID,0,VALID,98.4489,VALID,0,VALID,19.5082,VALID,60,VALID,0,
2003-08-29, 01:49:00,VALID,918.86,VALID,0,VALID,98.4743,VALID,-0.0509425,VALID,19.498,VALID,60,VALID,0.14375,
2003-08-29, 01:50:00,VALID,918.839,VALID,0,VALID,98.4413,VALID,-0.0849042,VALID,19.4953,VALID,62,VALID,0.379223,
2003-08-29, 01:51:00,VALID,918.813,VALID,0,VALID,98.4883,VALID,-0.0509425,VALID,19.4858,VALID,74,VALID,0.610352,
2003-08-29, 01:52:00,VALID,918.805,VALID,0,VALID,98.6078,VALID,-0.0679233,VALID,19.4861,VALID,74,VALID,0.583133,
2003-08-29, 01:53:00,VALID,918.794,VALID,0,VALID,98.6714,VALID,-0.101885,VALID,19.4893,VALID,79,VALID,0.522821,
2003-08-29, 01:54:00,VALID,918.787,VALID,0,VALID,98.7058,VALID,-0.0509425,VALID,19.4861,VALID,80,VALID,0.451122,
2003-08-29, 01:55:00,VALID,918.786,VALID,0,VALID,98.7287,VALID,-0.0509425,VALID,19.4794,VALID,80,VALID,0.422286,
2003-08-29, 01:56:00,VALID,918.804,VALID,0,VALID,98.7236,VALID,0,VALID,19.4714,VALID,80,VALID,0.292268,
2003-08-29, 01:57:00,VALID,918.801,VALID,0,VALID,98.5277,VALID,0.0169808,VALID,19.4682,VALID,80,VALID,0.200195,
2003-08-29, 01:58:00,VALID,918.813,VALID,0,VALID,98.384,VALID,0.0679233,VALID,19.4262,VALID,80,VALID,0.146537,
2003-08-29, 01:59:00,VALID,918.828,VALID,0,VALID,98.2683,VALID,0.0679233,VALID,19.3999,VALID,80,VALID,0.0339844,
2003-08-29, 02:00:00,VALID,918.839,VALID,0,VALID,98.2048,VALID,0.0679233,VALID,19.3713,VALID,80,VALID,0,
2003-08-29, 02:01:00,VALID,918.836,VALID,0,VALID,98.2404,VALID,0.0509425,VALID,19.3552,VALID,80,VALID,0,
2003-08-29, 02:02:00,VALID,918.833,VALID,0,VALID,98.3039,VALID,0.0679233,VALID,19.3554,VALID,80,VALID,0,
2003-08-29, 02:03:00,VALID,918.848,VALID,0,VALID,98.3662,VALID,0.0679233,VALID,19.3525,VALID,80,VALID,0,
2003-08-29, 02:04:00,VALID,918.852,VALID,0,VALID,98.4756,VALID,0.0679233,VALID,19.3485,VALID,80,VALID,0,
2003-08-29, 02:05:00,VALID,918.854,VALID,0,VALID,98.5112,VALID,0.0339617,VALID,19.352,VALID,80,VALID,0.000390625,
2003-08-29, 02:06:00,VALID,918.862,VALID,0,VALID,98.4603,VALID,0.0169808,VALID,19.3458,VALID,51,VALID,0.290752,
2003-08-29, 02:07:00,VALID,918.856,VALID,0,VALID,98.6969,VALID,0.0849042,VALID,19.3612,VALID,325,VALID,0.587305,
2003-08-29, 02:08:00,VALID,918.878,VALID,0,VALID,98.8571,VALID,0.0849042,VALID,19.4036,VALID,323,VALID,0.425681,
2003-08-29, 02:09:00,VALID,918.88,VALID,0,VALID,98.8838,VALID,0.0339617,VALID,19.4006,VALID,323,VALID,0.233347,
2003-08-29, 02:10:00,VALID,918.893,VALID,0,VALID,98.9512,VALID,0.0679233,VALID,19.4071,VALID,323,VALID,0.00440705,
2003-08-29, 02:11:00,VALID,918.889,VALID,0,VALID,98.9677,VALID,-0.0169808,VALID,19.4083,VALID,303,VALID,0.182977,
2003-08-29, 02:12:00,VALID,918.881,VALID,0,VALID,98.9931,VALID,-0.0339617,VALID,19.3919,VALID,299,VALID,0.160657,
2003-08-29, 02:13:00,VALID,918.872,VALID,0,VALID,99.0338,VALID,-0.0339617,VALID,19.3922,VALID,299,VALID,0.120312,
2003-08-29, 02:14:00,VALID,918.845,VALID,0,VALID,99.0567,VALID,-0.0339617,VALID,19.4021,VALID,299,VALID,0.0817145,
2003-08-29, 02:15:00,VALID,918.82,VALID,0,VALID,99.1267,VALID,-0.0509425,VALID,19.3952,VALID,299,VALID,0.00234375,
2003-08-29, 02:16:00,VALID,918.81,VALID,0,VALID,99.2017,VALID,-0.0339617,VALID,19.4252,VALID,299,VALID,0,
2003-08-29, 02:17:00,VALID,918.808,VALID,0,VALID,99.2004,VALID,-0.0679233,VALID,19.415,VALID,299,VALID,0,
2003-08-29, 02:18:00,VALID,918.807,VALID,0,VALID,99.0758,VALID,-0.0509425,VALID,19.3693,VALID,299,VALID,0,
2003-08-29, 02:19:00,VALID,918.806,VALID,0,VALID,98.9804,VALID,-0.0849042,VALID,19.3512,VALID,299,VALID,0,
2003-08-29, 02:20:00,VALID,918.783,VALID,0,VALID,98.9741,VALID,-0.0509425,VALID,19.3114,VALID,299,VALID,0,
2003-08-29, 02:21:00,VALID,918.769,VALID,0,VALID,99.03,VALID,-0.0509425,VALID,19.3147,VALID,299,VALID,0.103906,
2003-08-29, 02:22:00,VALID,918.758,VALID,0,VALID,99.119,VALID,-0.0849042,VALID,19.3477,VALID,331,VALID,0.206715,
2003-08-29, 02:23:00,VALID,918.752,VALID,0,VALID,99.2068,VALID,-0.0509425,VALID,19.3567,VALID,337,VALID,0.128125,
2003-08-29, 02:24:00,VALID,918.765,VALID,0,VALID,99.2487,VALID,-0.0169808,VALID,19.3701,VALID,337,VALID,0,
2003-08-29, 02:25:00,VALID,918.761,VALID,0,VALID,99.3149,VALID,-0.0679233,VALID,19.3924,VALID,337,VALID,0,
2003-08-29, 02:26:00,VALID,918.787,VALID,0,VALID,99.3454,VALID,-0.0339617,VALID,19.3922,VALID,309,VALID,0.138822,
2003-08-29, 02:27:00,VALID,918.779,VALID,0,VALID,99.4344,VALID,-0.0339617,VALID,19.4148,VALID,257,VALID,0.25514,
2003-08-29, 02:28:00,VALID,918.782,VALID,0,VALID,99.4967,VALID,-0.0169808,VALID,19.4242,VALID,247,VALID,0.264623,
2003-08-29, 02:29:00,VALID,918.763,VALID,0,VALID,99.5412,VALID,-0.0169808,VALID,19.4369,VALID,244,VALID,0.0427734,
2003-08-29, 02:30:00,VALID,918.737,VALID,0,VALID,99.5463,VALID,-0.0509425,VALID,19.454,VALID,244,VALID,0,
2003-08-29, 02:31:00,VALID,918.709,VALID,0,VALID,99.5183,VALID,-0.0169808,VALID,19.4379,VALID,244,VALID,0,
2003-08-29, 02:32:00,VALID,918.691,VALID,0,VALID,99.498,VALID,0,VALID,19.4116,VALID,244,VALID,0.115184,
2003-08-29, 02:33:00,VALID,918.687,VALID,0,VALID,99.5145,VALID,-0.0339617,VALID,19.3952,VALID,244,VALID,0.046875,
2003-08-29, 02:34:00,VALID,918.676,VALID,0,VALID,99.5628,VALID,-0.0509425,VALID,19.4051,VALID,244,VALID,0,
2003-08-29, 02:35:00,VALID,918.66,VALID,0,VALID,99.5781,VALID,0,VALID,19.418,VALID,244,VALID,0,
2003-08-29, 02:36:00,VALID,918.654,VALID,0,VALID,99.5921,VALID,-0.0339617,VALID,19.4183,VALID,244,VALID,0,
2003-08-29, 02:37:00,VALID,918.638,VALID,0,VALID,99.6239,VALID,-0.0169808,VALID,19.4212,VALID,244,VALID,0,
2003-08-29, 02:38:00,VALID,918.648,VALID,0,VALID,99.6328,VALID,-0.0169808,VALID,19.4344,VALID,244,VALID,0,
2003-08-29, 02:39:00,VALID,918.632,VALID,0,VALID,99.6378,VALID,-0.0169808,VALID,19.424,VALID,244,VALID,0,
2003-08-29, 02:40:00,VALID,918.633,VALID,0,VALID,99.6264,VALID,-0.0339617,VALID,19.4212,VALID,244,VALID,0.00600962,
2003-08-29, 02:41:00,VALID,918.608,VALID,0,VALID,99.6531,VALID,0,VALID,19.4245,VALID,244,VALID,0.143503,
2003-08-29, 02:42:00,VALID,918.6,VALID,0,VALID,99.6607,VALID,0,VALID,19.4314,VALID,244,VALID,0,
2003-08-29, 02:43:00,VALID,918.589,VALID,0,VALID,99.6798,VALID,-0.0169808,VALID,19.418,VALID,250,VALID,0.0596217,
2003-08-29, 02:44:00,VALID,918.577,VALID,0,VALID,99.6811,VALID,-0.0509425,VALID,19.4212,VALID,355,VALID,0.444311,
2003-08-29, 02:45:00,VALID,918.575,VALID,0,VALID,99.6913,VALID,-0.0849042,VALID,19.4212,VALID,359,VALID,0.215625,
2003-08-29, 02:46:00,VALID,918.572,VALID,0,VALID,99.6989,VALID,-0.0849042,VALID,19.418,VALID,359,VALID,0.249367,
2003-08-29, 02:47:00,VALID,918.565,VALID,0,VALID,99.7027,VALID,-0.0339617,VALID,19.4247,VALID,359,VALID,0.104687,
2003-08-29, 02:48:00,VALID,918.563,VALID,0,VALID,99.7129,VALID,-0.0169808,VALID,19.4245,VALID,359,VALID,0,
2003-08-29, 02:49:00,VALID,918.559,VALID,0,VALID,99.7243,VALID,-0.0339617,VALID,19.4113,VALID,359,VALID,0,
2003-08-29, 02:50:00,VALID,918.545,VALID,0,VALID,99.7319,VALID,-0.0169808,VALID,19.4143,VALID,359,VALID,0,
2003-08-29, 02:51:00,VALID,918.542,VALID,0,VALID,99.7459,VALID,-0.0679233,VALID,19.4309,VALID,359,VALID,0,
2003-08-29, 02:52:00,VALID,918.522,VALID,0,VALID,99.7307,VALID,-0.0169808,VALID,19.4312,VALID,359,VALID,0,
2003-08-29, 02:53:00,VALID,918.509,VALID,0,VALID,99.7129,VALID,-0.0849042,VALID,19.4118,VALID,359,VALID,0,
2003-08-29, 02:54:00,VALID,918.492,VALID,0,VALID,99.7027,VALID,-0.0509425,VALID,19.386,VALID,359,VALID,0,
2003-08-29, 02:55:00,VALID,918.463,VALID,0,VALID,99.6862,VALID,-0.0849042,VALID,19.3825,VALID,359,VALID,0,
2003-08-29, 02:56:00,VALID,918.432,VALID,0,VALID,99.662,VALID,-0.0339617,VALID,19.3534,VALID,359,VALID,0,
2003-08-29, 02:57:00,VALID,918.405,VALID,0,VALID,99.6709,VALID,-0.0339617,VALID,19.3408,VALID,359,VALID,0,
2003-08-29, 02:58:00,VALID,918.383,VALID,0,VALID,99.6913,VALID,-0.0679233,VALID,19.3214,VALID,359,VALID,0,
2003-08-29, 02:59:00,VALID,918.371,VALID,0,VALID,99.6696,VALID,-0.0169808,VALID,19.2985,VALID,359,VALID,0,
2003-08-29, 03:00:00,VALID,918.361,VALID,0,VALID,99.6556,VALID,-0.0509425,VALID,19.2762,VALID,359,VALID,0,
2003-08-29, 03:01:00,VALID,918.35,VALID,0,VALID,99.6417,VALID,-0.0339617,VALID,19.2501,VALID,359,VALID,0,
2003-08-29, 03:02:00,VALID,918.34,VALID,0,VALID,99.6493,VALID,-0.0509425,VALID,19.2473,VALID,359,VALID,0,
2003-08-29, 03:03:00,VALID,918.329,VALID,0,VALID,99.6798,VALID,-0.0169808,VALID,19.2337,VALID,359,VALID,0.0447266,
2003-08-29, 03:04:00,VALID,918.315,VALID,0,VALID,99.6836,VALID,0,VALID,19.2275,VALID,359,VALID,0.278646,
2003-08-29, 03:05:00,VALID,918.308,VALID,0,VALID,99.6887,VALID,-0.0339617,VALID,19.224,VALID,359,VALID,0.311678,
2003-08-29, 03:06:00,VALID,918.281,VALID,0,VALID,99.6391,VALID,0,VALID,19.1984,VALID,359,VALID,0.0552885,
2003-08-29, 03:07:00,VALID,918.274,VALID,0,VALID,99.6061,VALID,0,VALID,19.1564,VALID,359,VALID,0.0349507,
2003-08-29, 03:08:00,VALID,918.261,VALID,0,VALID,99.5755,VALID,0,VALID,19.1045,VALID,359,VALID,0.128606,
2003-08-29, 03:09:00,VALID,918.24,VALID,0,VALID,99.6111,VALID,-0.0509425,VALID,19.0921,VALID,359,VALID,0,
2003-08-29, 03:10:00,VALID,918.226,VALID,0,VALID,99.6035,VALID,-0.0169808,VALID,19.0792,VALID,359,VALID,0.0177365,
2003-08-29, 03:11:00,VALID,918.205,VALID,0,VALID,99.5844,VALID,-0.0339617,VALID,19.0568,VALID,359,VALID,0.0318359,
2003-08-29, 03:12:00,VALID,918.197,VALID,0,VALID,99.6328,VALID,-0.0339617,VALID,19.0471,VALID,359,VALID,0,
2003-08-29, 03:13:00,VALID,918.195,VALID,0,VALID,99.6722,VALID,-0.0169808,VALID,19.0377,VALID,359,VALID,0,
2003-08-29, 03:14:00,VALID,918.191,VALID,0,VALID,99.6951,VALID,-0.0169808,VALID,19.0374,VALID,359,VALID,0,
2003-08-29, 03:15:00,VALID,918.203,VALID,0,VALID,99.7307,VALID,-0.0339617,VALID,19.0402,VALID,359,VALID,0,
2003-08-29, 03:16:00,VALID,918.215,VALID,0,VALID,99.7421,VALID,-0.0339617,VALID,19.07,VALID,359,VALID,0,
2003-08-29, 03:17:00,VALID,918.209,VALID,0,VALID,99.7663,VALID,-0.0169808,VALID,19.066,VALID,359,VALID,0,
2003-08-29, 03:18:00,VALID,918.205,VALID,0,VALID,99.7701,VALID,0,VALID,19.0695,VALID,359,VALID,0,
2003-08-29, 03:19:00,VALID,918.182,VALID,0,VALID,99.7675,VALID,-0.0509425,VALID,19.0797,VALID,359,VALID,0,
2003-08-29, 03:20:00,VALID,918.178,VALID,0,VALID,99.779,VALID,-0.0679233,VALID,19.0764,VALID,359,VALID,0,
2003-08-29, 03:21:00,VALID,918.167,VALID,0,VALID,99.7777,VALID,-0.0679233,VALID,19.0732,VALID,359,VALID,0,
2003-08-29, 03:22:00,VALID,918.153,VALID,0,VALID,99.7841,VALID,-0.0509425,VALID,19.0827,VALID,359,VALID,0,
2003-08-29, 03:23:00,VALID,918.143,VALID,0,VALID,99.7981,VALID,-0.0169808,VALID,19.0951,VALID,359,VALID,0,
2003-08-29, 03:24:00,VALID,918.131,VALID,0,VALID,99.8019,VALID,0,VALID,19.1055,VALID,359,VALID,0.141226,
2003-08-29, 03:25:00,VALID,918.11,VALID,0,VALID,99.8095,VALID,0,VALID,19.1179,VALID,359,VALID,0.335156,
2003-08-29, 03:26:00,VALID,918.096,VALID,0,VALID,99.7968,VALID,0,VALID,19.1108,VALID,359,VALID,0.175887,
2003-08-29, 03:27:00,VALID,918.075,VALID,0,VALID,99.8019,VALID,0.0169808,VALID,19.1297,VALID,359,VALID,0.228516,
2003-08-29, 03:28:00,VALID,918.072,VALID,0,VALID,99.8082,VALID,0.0169808,VALID,19.1493,VALID,359,VALID,0.171074,
2003-08-29, 03:29:00,VALID,918.061,VALID,0,VALID,99.8108,VALID,0.0169808,VALID,19.1527,VALID,359,VALID,0,
2003-08-29, 03:30:00,VALID,918.06,VALID,0,VALID,99.7955,VALID,0.0169808,VALID,19.1532,VALID,359,VALID,0,
2003-08-29, 03:31:00,VALID,918.056,VALID,0,VALID,99.7777,VALID,-0.0169808,VALID,19.1435,VALID,359,VALID,0,
2003-08-29, 03:32:00,VALID,918.064,VALID,0,VALID,99.779,VALID,0,VALID,19.1465,VALID,359,VALID,0.11859,
2003-08-29, 03:33:00,VALID,918.084,VALID,0,VALID,99.7777,VALID,0,VALID,19.1465,VALID,359,VALID,0.0716797,
2003-08-29, 03:34:00,VALID,918.074,VALID,0,VALID,99.7574,VALID,0,VALID,19.1371,VALID,359,VALID,0.623944,
2003-08-29, 03:35:00,VALID,918.091,VALID,0,VALID,99.7345,VALID,0.0169808,VALID,19.1008,VALID,359,VALID,0.610547,
2003-08-29, 03:36:00,VALID,918.087,VALID,0,VALID,99.7561,VALID,0,VALID,19.1237,VALID,360,VALID,0.355369,
2003-08-29, 03:37:01,VALID,918.081,VALID,0,VALID,99.779,VALID,0,VALID,19.1368,VALID,360,VALID,0.324836,
2003-08-29, 03:38:00,VALID,918.068,VALID,0,VALID,99.8197,VALID,0,VALID,19.1617,VALID,359,VALID,0.124399,
2003-08-29, 03:39:00,VALID,918.077,VALID,0,VALID,99.8426,VALID,0,VALID,19.185,VALID,346,VALID,0.249383,